Content
SEND FEEDBACK

Daily
Averages
Monthly
Summary
United States of America

NEWINGTON, GEORGIA


Home > North America > United States > Georgia
Elevation: 135 feet     Latitude: 32 37N     Longitude: 081 28W

WEATHER
 
SELECT A DAY
Number of Records: 244,893;   Date Range: 1/16/04 - 11/24/14
 
SHARE

PRINT THIS DATA

[ ← Previous Day ]
WEATHER ALMANAC - FEBRUARY 13, 2013
[ Next Day → ]
[ °C ]   °F
Weather ElementAverageHighLow
Temperature58.8 °F71.4 °F (1:15 pm)52.2 °F (11:55 pm)
Dewpoint54.5 °F64.6 °F (11:15 am)49.1 °F (4:35 pm)
Humidity87.5 %100 % (12:35 am)55 % (1:35 pm)
Barometer29.82 in29.94 in (10:35 pm)29.76 in (1:15 pm)
Wind Speed6.8 mph18.4 mph (5:35 pm)
Wind Gust25.3 mph (5:35 pm)
Weather ElementAverage
Visibility8.1 mi
Wind DirectionS (176.5 °)

Weather ElementTotal
Precipitation---
Heating Degree Days3.2 (Base 65)
Growing Degree Days11.8 (Base 50)
Averaged from 71 records on February 13, 2013
WEATHER CONDITIONS BREAKOUT
WIND DIRECTION BREAKOUT
WEATHER BY HOUR - FEBRUARY 13, 2013
[ °C ]   °F
Local TimeTemperatureDewpointHumidityBarometerVisibilityWind DirectionWind SpeedGust SpeedPrecipitationEventsConditions
12:35 AM55.6 °F55.6 °F100 %29.86 in10.0 miEast (80°)8.1 mphRainRain
12:55 AM55.4 °F55.4 °F100 %29.84 in10.0 miENE (60°)4.6 mphLight Drizzle
1:15 AM55.0 °F55.0 °F100 %29.83 in10.0 miCalmOvercast
1:35 AM54.9 °F54.9 °F100 %29.83 in10.0 miENE (70°)6.9 mphOvercast
1:55 AM54.7 °F54.7 °F100 %29.81 in10.0 miENE (60°)5.8 mphOvercast
2:15 AM54.5 °F54.5 °F100 %29.79 in7.0 miENE (70°)8.1 mphRain-ThunderstormLight Thunderstorms and Rain
2:35 AM54.5 °F54.5 °F100 %29.80 in10.0 miENE (60°)3.5 mphThunderstormOvercast
2:55 AM54.5 °F54.5 °F100 %29.81 in10.0 miEast (90°)3.5 mphThunderstormThunderstorm
3:15 AM54.5 °F54.5 °F100 %29.79 in10.0 miNNE (30°)6.9 mphThunderstormThunderstorm
3:35 AM54.5 °F54.5 °F100 %29.79 in10.0 miCalmRainRain
3:55 AM54.5 °F54.5 °F100 %29.78 in7.0 miCalmThunderstormThunderstorm
4:15 AM54.5 °F54.5 °F100 %29.78 in7.0 miCalmOvercast
4:35 AM54.5 °F54.5 °F100 %29.78 in4.0 miCalmOvercast
4:55 AM54.5 °F54.5 °F100 %29.77 in1.8 miCalmOvercast
5:15 AM54.5 °F54.5 °F100 %29.78 in1.5 miNNE (20°)3.5 mphThunderstormOvercast
5:35 AM54.5 °F54.5 °F100 %29.78 in1.0 miCalmThunderstormOvercast
5:55 AM54.5 °F54.5 °F100 %29.77 in0.8 miCalmOvercast
6:15 AM54.0 °F54.0 °F100 %29.77 in0.5 miNNE (30°)4.6 mphFogFog
6:35 AM54.0 °F54.0 °F100 %29.79 in0.8 miCalmOvercast
6:55 AM54.1 °F54.1 °F100 %29.79 in0.8 miCalmOvercast
7:15 AM54.1 °F54.1 °F100 %29.79 in0.8 miCalmOvercast
7:35 AM54.5 °F54.5 °F100 %29.79 in0.2 miCalmFogFog
7:55 AM54.7 °F54.7 °F100 %29.80 in0.5 miCalmFogFog
8:15 AM54.9 °F54.9 °F100 %29.81 in2.0 miCalmOvercast
8:35 AM55.4 °F55.4 °F100 %29.81 in5.0 miCalmOvercast
8:55 AM55.8 °F55.8 °F100 %29.81 in7.0 miCalmOvercast
9:15 AM56.7 °F56.7 °F100 %29.81 in10.0 miCalmOvercast
9:35 AM58.1 °F58.1 °F100 %29.80 in7.0 miCalmOvercast
9:55 AM59.0 °F59.0 °F100 %29.81 in10.0 miWSW (240°)3.5 mphOvercast
10:15 AM60.3 °F60.3 °F100 %29.81 in7.0 miSSW (210°)4.6 mphOvercast
10:35 AM61.3 °F61.3 °F100 %29.82 in7.0 miWNW (290°)4.6 mphOvercast
10:55 AM63.0 °F63.0 °F100 %29.81 in10.0 miWSW (250°)4.6 mphOvercast
11:15 AM64.8 °F64.6 °F99 %29.81 in10.0 miWest (260°)11.5 mph17.3 mphOvercast
11:35 AM65.7 °F64.6 °F96 %29.78 in10.0 miWSW (250°)11.5 mph16.1 mphMostly Cloudy
11:55 AM67.3 °F63.9 °F89 %29.78 in10.0 miWest (260°)9.2 mphScattered Clouds
12:15 PM68.2 °F61.5 °F79 %29.79 in10.0 miWest (260°)10.4 mph19.6 mphClear
12:35 PM68.9 °F59.7 °F72 %29.77 in10.0 miWest (260°)8.1 mph18.4 mphClear
12:55 PM69.8 °F58.3 °F67 %29.77 in10.0 miWest (270°)11.5 mph17.3 mphClear
1:15 PM71.4 °F58.5 °F64 %29.76 in10.0 miWest (270°)12.7 mph18.4 mphScattered Clouds
1:35 PM70.3 °F53.6 °F55 %29.76 in10.0 miWest (280°)12.7 mph23.0 mphScattered Clouds
1:55 PM69.8 °F55.2 °F60 %29.76 in10.0 miWNW (290°)17.3 mphScattered Clouds
2:15 PM69.1 °F54.0 °F58 %29.76 in10.0 miWNW (290°)16.1 mph23.0 mphClear
2:35 PM69.8 °F54.1 °F57 %29.76 in10.0 miWNW (300°)17.3 mph21.9 mphClear
2:55 PM68.4 °F52.7 °F57 %29.76 in10.0 miWNW (290°)16.1 mph19.6 mphClear
3:15 PM67.8 °F52.3 °F58 %29.76 in10.0 miWNW (290°)13.8 mph21.9 mphClear
3:35 PM66.7 °F51.1 °F57 %29.77 in10.0 miWest (280°)16.1 mph24.2 mphClear
3:55 PM66.2 °F50.4 °F57 %29.79 in10.0 miWest (270°)11.5 mph19.6 mphMostly Cloudy
4:15 PM65.7 °F50.4 °F58 %29.80 in10.0 miWest (270°)9.2 mph17.3 mphMostly Cloudy
4:35 PM65.5 °F49.1 °F55 %29.80 in10.0 miWest (280°)9.2 mph18.4 mphRainLight Rain
4:55 PM64.8 °F49.5 °F58 %29.80 in10.0 miWest (280°)9.2 mph18.4 mphRainLight Rain
5:15 PM64.8 °F49.1 °F57 %29.81 in10.0 miWest (270°)11.5 mph19.6 mphOvercast
5:35 PM64.0 °F50.2 °F61 %29.83 in10.0 miWest (280°)18.4 mph25.3 mphRainLight Rain
5:55 PM59.9 °F53.1 °F78 %29.82 in10.0 miWest (260°)8.1 mph18.4 mphRainLight Rain
6:15 PM59.5 °F53.1 °F79 %29.81 in10.0 miWest (270°)4.6 mphOvercast
6:35 PM59.9 °F52.5 °F77 %29.83 in10.0 miWNW (290°)11.5 mph17.3 mphLight Drizzle
6:55 PM58.3 °F52.9 °F82 %29.83 in10.0 miWest (280°)8.1 mphRainRain
7:15 PM56.7 °F54.0 °F91 %29.86 in10.0 miWest (280°)9.2 mphRainLight Rain
7:35 PM55.8 °F54.1 °F94 %29.86 in7.0 miWest (280°)9.2 mphRainRain
7:55 PM55.2 °F53.8 °F95 %29.88 in10.0 miWest (280°)8.1 mphRainRain
8:15 PM54.7 °F53.2 °F95 %29.88 in10.0 miNW (310°)11.5 mphMostly Cloudy
8:35 PM54.0 °F52.2 °F94 %29.88 in10.0 miWest (280°)5.8 mphScattered Clouds
8:55 PM53.8 °F51.8 °F93 %29.90 in10.0 miWest (280°)6.9 mphClear
9:15 PM53.6 °F51.4 °F92 %29.90 in10.0 miWNW (290°)6.9 mphClear
9:35 PM53.2 °F51.1 °F92 %29.90 in10.0 miWNW (300°)8.1 mphClear
9:55 PM53.2 °F50.9 °F92 %29.90 in10.0 miWNW (290°)6.9 mphClear
10:15 PM53.1 °F50.7 °F92 %29.92 in10.0 miWest (280°)10.4 mphClear
10:35 PM53.1 °F50.4 °F91 %29.94 in10.0 miWNW (290°)6.9 mphClear
10:55 PM52.7 °F50.4 °F92 %29.93 in10.0 miWNW (290°)6.9 mphClear
11:15 PM52.7 °F50.0 °F91 %29.92 in10.0 miWNW (300°)8.1 mphClear
11:35 PM52.3 °F49.3 °F89 %29.92 in10.0 miNW (310°)8.1 mphClear
11:55 PM52.2 °F49.1 °F89 %29.92 in10.0 miNW (310°)10.4 mphClear
Hourly data recorded from KJYL, located miles away from Newington, Georgia







STORIES FROM OUR PARTNERS